COSMOS 2491 DEB, 57567

Orbit data source: Space-Track

COSMOS 2491 DEB, 57567 is space debris in LEO originally from a launch on Wed, 25 Dec 2013 UTC launched from the Plesetsk Missile And Space Complex (PKMTR). Debris objects in space refer to the collection of defunct objects orbiting the Earth. Examples of debris include non-operational satellites, rocket bodies, and fragments generated from explosions, collisions, or faulty payload assembly.

Loading next visibility...
Identifier
57567, 2013-076BE
Orbit
LEO
Country
Flag of CISCIS
Related business
Manufacturer
TsNIIKhM
Mission
Spacecraft
Bus & Motor
Unknown
Mass
Unknown
Launch date (UTC)
2013-12-25 (13 years ago)
Launch vehicle
Unknown
Launch site
Plesetsk Missile And Space Complex (PKMTR)
Object type
Payload
Rocket body
Debris
Shape & HBR
Unknown shape, 0.1 m
Radar Cross Section
Small (<0.1 m²)

Expand to show TLE details & history
Last TLE update: 23 hours ago

TLE from 23 hours ago
0 COSMOS 2491 DEB
1 57567U 13076BE  26255.24627560  .00001719  00000-0  98107-2 0  9994
2 57567  82.4700  86.2117 0070517  11.8664 348.4066 12.59585257153294
Epoch: 2026-09-12T05:54Z
TLE epoch observation values (Epoch: 2026-09-12T05:54:38.211Z)
Latitude
-0.00011°
Longitude
6.29444°
Altitude
1,373.486 km
Speed
7.197 km/s
True Right ascension
05h 44m 50s
True Declination
0° 00' 00"
Sunlit
Object was in daylight at epoch
Visualization orbit readout
Latitude
Unknown
Longitude
Unknown
Altitude
Unknown
Speed
Unknown
Apparent Right ascension
Unknown
Apparent Declination
Unknown
Sunlit
N/A
Visualization observer readout
Local Sidereal Time
21:38:11
Azimuth
Unknown
Elevation
Unknown
Doppler factor
Unknown
Orbital elements
Apogee altitude
1,476.989 km
Perigee altitude
1,366.981 km
Semi-major axis
7,800.122 km
Eccentricity
0.00705
Inclination
82.47°
RAAN
86.2117°
Arg. of periapsis
11.8664°
True anomaly
348.24279°
Mean anomaly
348.4066°
Eccentric anomaly
348.32484°
Mean motion
3.15058 °/min
Orbital period
114.26 mins
BSTAR
0.0098107
Loading maneuver chart data...
Computing Atmospheric mass density...
Loading historical data...
Loading historical data...
Loading historical data...
Loading historical data...
Loading historical data...
Loading historical data...
Loading historical data...

Documentation

Showing up to 5 results
|